EHI
7 7 8 7 4 2 2 1 0 0 1 1 1 1 0 0 0 0 1 3 5 5 4 3 1 0 0 0 0 0 0 0 0 0 0 0 0 0 1 0 0 0 0
9 9 9 7 4 2 3 2 0 1 2 1 1 1 1 1 0 0 0 2 4 5 4 3 2 1 0 0 0 0 0 0 0 0 0 0 0 0 1 0 0 0 0
12 11 9 7 5 3 3 3 2 2 2 1 1 1 2 2 1 1 3 4 4 3 4 4 3 1 0 0 0 0 0 0 0 0 0 0 0 0 0 0 0 0 0
13 12 9 8 8 5 3 4 4 3 2 1 1 2 4 5 4 5 6 8 7 5 4 4 4 3 1 1 0 0 0 0 0 0 0 0 0 0 0 0 0 0 0
17 15 12 12 11 9 6 5 6 5 2 1 0 2 5 8 9 7 7 9 13 13 9 5 4 4 3 2 1 1 1 1 1 0 0 0 0 0 0 0 0 0 0
21 18 16 15 14 13 10 7 8 7 4 2 1 2 5 10 12 10 6 7 13 18 19 14 7 4 3 3 3 3 3 3 3 2 1 0 0 0 0 0 0 0 0
21 19 18 17 16 14 12 10 10 9 7 4 3 3 4 8 12 12 8 6 9 16 23 23 17 11 7 5 4 5 6 6 6 6 4 3 1 0 0 0 0 0 0
21 19 19 18 16 14 13 14 13 12 9 7 6 5 4 4 8 9 9 9 10 15 21 25 28 26 20 13 8 6 6 8 10 10 10 8 5 2 1 0 0 0 0
23 21 20 20 18 15 16 17 16 14 11 10 10 9 6 4 3 4 6 10 14 17 18 20 27 33 29 23 17 10 7 8 10 11 12 11 8 5 2 0 0 0 0
25 23 23 24 21 16 17 18 17 15 14 13 13 11 9 7 5 4 5 8 12 15 17 15 18 26 30 30 27 19 9 4 4 7 9 11 10 6 2 0 0 0 0
27 25 28 31 27 21 19 19 18 17 16 14 13 12 11 10 8 5 5 6 8 12 17 17 16 20 28 33 32 23 11 3 1 2 5 8 10 8 4 1 0 0 0
33 33 35 39 37 30 26 24 21 19 17 15 13 13 13 13 11 7 4 4 4 9 17 21 21 21 25 29 28 20 11 5 1 0 1 4 7 8 6 3 1 0 0
42 43 45 48 46 38 33 29 26 23 21 19 16 15 15 15 13 9 5 2 1 5 12 18 21 21 21 23 20 14 9 4 1 0 0 1 2 4 5 4 2 1 0
45 48 51 51 49 41 35 35 33 29 27 26 22 19 18 18 16 13 8 3 0 1 5 10 15 18 20 19 15 10 7 3 0 0 0 0 0 1 1 2 2 1 1
44 47 49 49 47 41 38 40 39 35 33 31 26 21 20 19 17 15 12 7 4 2 2 5 8 12 16 15 11 9 9 4 0 0 0 0 0 0 0 0 1 1 0
47 49 47 46 45 43 42 42 40 35 34 32 26 21 20 20 17 15 13 11 9 6 5 5 7 9 11 10 9 11 12 7 2 0 0 0 0 0 0 0 0 0 0
55 53 50 47 45 44 43 42 37 33 33 30 24 20 19 19 18 15 13 11 10 8 7 7 10 12 12 11 11 13 13 8 3 1 0 0 0 0 0 0 0 0 0
62 57 51 47 45 45 45 42 38 34 31 27 23 19 17 17 17 17 15 11 9 8 6 6 8 11 13 13 15 14 11 6 3 1 0 0 0 0 0 0 0 0 0
62 55 49 46 44 44 44 42 38 35 31 26 23 19 16 16 17 18 17 15 11 8 7 5 4 6 8 11 13 12 9 7 3 1 0 0 0 0 0 0 0 0 0
54 51 49 47 44 40 37 37 36 34 30 26 23 19 16 14 14 15 16 15 12 10 8 5 3 4 5 8 9 8 7 7 5 2 1 1 0 0 0 0 0 0 0
48 49 49 48 42 34 27 26 30 30 27 24 22 18 13 10 8 8 9 10 9 9 9 8 6 6 7 8 7 6 5 5 5 4 3 2 1 0 0 0 0 0 0
49 48 46 44 38 27 17 14 18 21 20 18 18 17 12 7 5 4 4 3 4 6 8 8 7 6 7 8 7 5 4 3 3 3 3 3 2 1 1 0 0 0 0
50 47 44 41 33 22 12 8 8 12 13 13 16 17 13 8 7 6 4 2 2 3 4 5 5 4 5 6 6 5 4 4 3 2 2 3 2 2 1 0 0 0 0
47 45 42 38 30 19 11 6 4 7 10 11 13 14 12 9 7 6 5 4 4 4 3 2 2 3 3 3 3 4 5 5 4 2 2 3 2 1 1 0 0 0 0
43 41 38 34 27 17 9 5 4 7 11 10 9 9 8 7 6 4 4 5 5 5 4 2 1 2 1 0 1 3 5 6 5 3 3 3 2 1 0 1 1 1 0
42 38 33 30 24 15 8 4 4 8 11 10 7 6 6 6 5 4 4 5 6 5 5 4 2 1 0 0 0 2 4 6 5 4 3 3 3 2 1 2 2 2 1
Wind_Speed
3 3 1 1 1 2 2 1 1 2 2 1 2 3 3 4 5 7 6 10 9 8 8 8 8 8 8 7 7 7 7 7 7 6 6 7 7 7 7 7 7 7 6
3 3 2 1 1 2 2 2 2 2 1 1 1 2 2 3 3 7 7 7 9 9 8 9 8 8 8 8 7 7 7 7 6 6 6 6 7 7 6 7 7 7 6
3 2 2 1 1 2 2 1 1 1 2 2 2 1 1 2 2 5 7 6 6 8 9 9 9 9 9 8 8 8 8 7 7 7 6 6 7 7 6 6 7 7 6
2 2 1 1 2 2 2 1 1 1 1 1 1 1 2 2 2 3 5 6 6 6 8 11 10 10 10 9 9 9 9 8 8 8 7 7 8 7 7 7 7 7 7
3 1 1 1 1 1 1 1 1 1 1 1 1 2 2 3 3 4 4 5 6 6 6 9 11 11 11 11 10 10 10 9 9 9 9 9 9 8 8 7 7 7 7
3 2 2 2 1 1 1 1 0 1 1 2 3 1 2 3 3 3 4 4 5 7 7 8 7 8 12 11 11 11 11 11 11 11 10 10 10 9 9 9 8 8 8
4 2 1 2 1 1 1 2 1 2 2 2 1 1 2 3 4 3 3 3 5 5 6 8 7 6 7 12 12 12 12 12 11 11 11 11 10 10 10 10 9 9 9
4 4 3 2 2 2 2 2 1 2 2 1 1 1 1 1 2 5 4 4 4 4 6 8 7 7 6 6 8 13 13 13 13 12 12 11 11 10 11 11 10 10 10
4 3 4 3 2 3 3 3 3 3 2 2 2 1 1 1 1 2 4 3 3 3 4 5 7 7 7 6 7 12 14 13 13 14 13 12 12 11 11 12 12 11 11
4 4 4 3 3 2 2 4 4 3 3 3 2 2 2 1 1 1 2 2 4 4 4 4 5 6 7 5 7 12 15 14 14 14 13 13 12 12 12 12 13 13 12
4 5 5 4 3 3 3 3 1 3 2 3 2 2 2 2 3 2 2 2 3 3 4 4 4 4 6 6 6 10 15 15 15 14 13 13 12 12 12 13 13 13 13
4 6 5 4 4 4 3 3 3 4 3 3 3 2 2 2 2 2 3 3 3 3 4 4 4 5 5 6 9 12 16 16 15 14 13 12 12 12 12 13 13 14 14
4 5 6 5 4 4 4 3 4 4 4 4 4 3 2 2 2 2 2 3 3 2 2 3 3 4 4 4 5 11 13 14 13 13 12 11 11 11 11 11 12 13 13
3 4 5 5 5 5 5 4 3 4 4 4 5 3 2 3 2 2 2 2 2 2 2 3 2 2 2 3 5 10 8 13 13 13 12 11 11 11 10 10 11 11 11
4 4 5 5 5 5 4 4 3 4 3 4 4 4 3 3 3 3 2 2 2 3 3 3 1 2 2 2 5 6 5 11 13 12 12 11 11 11 10 10 10 10 10
3 3 4 4 4 4 4 4 3 3 3 3 3 3 3 3 3 3 3 3 2 2 3 2 2 2 1 2 5 5 5 9 12 12 12 12 11 11 10 10 10 10 10
4 4 4 4 4 4 4 3 4 3 4 3 4 4 3 3 2 3 3 2 2 2 3 4 2 2 2 2 2 3 3 4 5 12 12 12 11 10 10 9 9 9 9
4 4 4 4 4 4 4 4 5 4 3 3 3 3 3 3 2 3 3 3 2 2 3 4 3 2 3 3 3 4 4 5 4 8 12 12 11 11 10 9 9 8 8
4 4 4 4 4 3 3 3 3 3 3 3 3 3 2 2 2 3 3 3 2 3 2 3 3 2 2 2 2 3 3 2 4 4 7 10 10 10 10 9 9 8 8
4 3 3 3 2 2 2 2 2 2 2 2 2 1 1 2 3 3 2 2 3 3 3 2 3 3 3 3 2 2 2 2 3 3 3 5 7 9 10 10 9 8 7
4 3 3 2 2 2 1 1 2 2 2 1 1 1 1 1 2 2 2 2 2 2 2 2 3 2 2 2 2 3 3 2 2 2 1 2 3 4 5 7 8 8 8
3 3 3 2 1 1 1 1 1 1 0 0 1 1 1 1 2 1 1 1 1 1 2 2 2 2 3 3 3 3 2 2 2 1 1 2 1 2 3 3 6 8 8
3 3 3 3 3 2 3 3 2 1 1 1 1 1 2 2 2 2 2 2 2 1 1 1 2 3 4 4 4 4 3 2 2 2 1 2 1 1 1 2 6 7 7
3 2 3 3 3 2 3 3 3 1 1 1 1 2 2 3 4 3 2 2 1 1 1 0 1 3 3 3 4 4 3 2 1 2 1 2 1 1 1 1 5 6 6
3 2 3 3 3 3 3 2 2 1 1 1 2 3 3 3 4 4 2 1 1 1 1 1 1 1 2 4 4 3 3 2 2 2 2 1 1 2 1 1 2 4 5
3 3 3 3 4 3 4 4 2 1 2 2 2 3 5 4 4 4 2 1 2 3 3 2 2 2 2 2 2 1 2 2 2 2 3 2 1 2 1 0 0 2 2
Wind_Direction
119 112 106 110 133 129 146 142 105 85 76 70 59 62 70 93 116 124 135 150 149 153 157 157 158 157 158 159 158 162 164 165 161 159 160 158 155 152 153 154 154 153 154
114 118 117 67 71 80 83 102 118 123 111 81 80 84 92 89 109 130 144 156 163 166 169 171 172 170 172 174 175 175 177 178 173 170 171 171 167 165 167 171 168 166 166
128 135 128 137 127 110 106 103 122 151 166 158 134 123 107 106 118 133 150 160 169 180 183 184 184 185 186 187 186 187 188 188 184 182 183 181 178 178 180 180 181 180 179
140 145 143 152 147 153 150 149 202 191 155 161 164 191 146 157 168 168 162 167 169 176 188 193 190 193 197 198 195 198 197 195 194 194 193 192 191 192 192 193 193 190 189
157 150 127 121 184 170 152 192 131 225 198 185 201 196 189 179 193 197 176 174 173 169 173 190 195 197 202 204 203 204 203 201 200 201 203 204 202 201 202 203 202 199 197
171 167 172 181 214 144 119 88 77 286 275 243 251 203 202 180 206 196 199 189 183 183 179 178 187 202 208 208 208 209 208 206 204 206 209 210 209 208 209 208 207 208 209
171 189 171 167 196 179 166 191 215 233 252 254 276 262 243 215 208 192 210 207 195 189 178 177 185 190 196 209 211 210 210 210 208 209 211 214 215 213 212 212 211 213 217
178 191 183 199 179 185 195 208 225 254 256 231 229 277 274 287 256 219 199 211 207 189 186 191 192 187 187 181 203 208 212 211 211 211 212 215 217 216 215 217 216 216 219
191 206 182 205 195 199 190 207 216 234 257 258 230 218 226 240 269 268 223 205 194 195 197 194 189 189 193 184 186 203 208 210 211 214 214 215 216 217 219 222 222 220 220
193 202 199 199 213 228 194 214 205 220 237 261 251 227 231 233 224 280 294 242 212 209 216 216 204 190 195 187 186 188 198 205 210 215 217 217 217 218 221 224 226 226 224
202 208 203 201 208 226 224 225 203 236 236 242 253 240 238 240 235 219 252 260 242 220 212 213 215 203 194 190 187 192 193 200 207 213 217 219 220 220 223 226 230 231 230
203 211 208 197 207 220 221 217 218 239 245 254 261 261 241 234 237 236 245 249 241 234 215 209 213 211 199 194 199 192 191 197 203 208 213 216 220 221 224 227 230 232 233
202 205 207 195 207 210 216 220 214 237 238 247 247 254 263 264 255 251 260 269 269 260 228 215 217 219 211 185 188 187 191 194 200 206 211 215 221 224 226 229 232 235 237
211 197 199 198 207 212 220 210 223 229 225 233 242 239 257 270 270 258 250 261 281 286 266 253 225 213 209 181 183 188 190 193 201 206 209 214 220 223 225 228 231 234 237
213 200 203 203 209 211 220 206 226 235 225 225 240 236 237 259 266 264 258 245 242 269 273 266 258 228 189 165 177 198 192 195 201 205 210 217 221 222 223 225 225 226 226
221 208 213 208 214 214 214 213 225 219 222 233 236 243 243 252 268 275 269 262 242 238 260 262 261 257 245 214 182 204 205 192 199 202 209 214 216 218 219 220 220 219 219
216 211 212 210 212 212 215 216 230 223 220 231 244 242 242 256 274 289 290 293 293 275 264 274 271 273 273 274 208 220 203 195 197 203 207 207 208 209 211 213 216 217 217
205 207 209 215 219 216 211 211 225 226 222 229 245 256 259 259 255 276 289 288 280 267 258 269 275 268 261 251 228 233 230 224 213 205 202 204 206 208 210 214 214 214 215
202 204 204 212 218 218 210 215 219 225 230 237 247 252 255 264 269 267 268 278 283 283 274 275 279 274 265 265 253 257 258 250 246 216 199 205 210 211 211 214 214 212 212
191 187 189 199 198 197 205 218 217 220 236 245 255 274 292 284 280 279 278 280 284 293 288 284 280 282 278 272 257 258 266 245 251 247 218 204 203 205 208 210 208 207 207
182 172 174 183 194 198 252 253 235 221 234 254 290 311 310 339 339 324 302 303 301 296 299 294 289 296 298 306 290 272 267 264 250 233 221 218 198 201 205 210 210 206 204
168 156 160 170 172 171 36 51 7 297 35 20 335 311 285 17 7 19 2 350 332 304 305 297 296 303 306 305 301 287 277 274 272 242 218 250 204 207 204 199 188 188 194
163 162 156 142 118 71 54 68 74 9 23 27 0 344 326 358 6 1 355 21 37 31 282 280 305 305 307 313 313 306 296 287 280 294 281 266 254 262 237 175 178 182 188
153 153 147 130 120 90 74 77 69 94 58 25 22 17 24 18 9 8 2 24 7 2 314 270 289 302 314 317 309 302 298 296 307 328 339 276 295 290 287 188 192 193 197
147 139 124 119 112 81 45 63 77 162 121 79 58 45 41 32 9 9 12 16 345 319 270 212 213 288 333 349 348 351 341 332 315 328 354 306 304 294 267 198 196 201 213
130 125 113 101 96 81 55 64 70 67 85 86 79 65 53 37 23 27 21 8 337 315 314 315 303 286 280 325 356 335 317 324 325 333 345 335 324 330 308 286 196 202 222